STARLINK-1710, 46330

Orbit data source: Space-Track

STARLINK-1710, 46330 is a payload satellite owned by SpaceX/Seattle (US) in LEO that was launched on Thu, 03 Sep 2020 UTC via an FALCON 9 launch vehicle from the Air Force Eastern Test Range (AFETR). Payload-class satellites include a variety of spacecraft equipped with specific instruments for various scientific and technological missions. These include communications satellites like Starlink; space stations such as the ISS; scientific satellites like the Hubble; Earth observation satellites from companies like Planet Labs, Umbra, and HawkEye 360; GPS; miniature CubeSats for education and research; and military/defense satellites.

Loading next visibility...
Identifier
46330, 2020-062F
Orbit
LEO
Country
Flag of USUS
Related business
Manufacturer
SpaceX/Seattle
Mission
Partially operational Commercial Communications
Bus & Motor
STARLINK, Unknown motor
Mass
260 kg wet, ~248 kg dry
Launch date (UTC)
2020-09-03 (5 years ago)
Launch vehicle
FALCON 9
Launch site
Air Force Eastern Test Range (AFETR)
Object type
Payload
Rocket body
Debris
Shape & HBR
Box + 1 Pan, 10.1 m
Radar Cross Section
13.562 m², Large (>1 m²)

Expand to show TLE details & history
Last TLE update: 12 hours ago

TLE from 12 hours ago
0 STARLINK-1710
1 46330U 20062F   25288.00002315  .00122848  00000-0  30224-2 0  9990
2 46330  53.0484 273.1009 0009979   6.5065 113.8533 15.39670608  5936
Epoch: 2025-10-15T00:00Z
TLE epoch observation values (Epoch: 2025-10-15T00:00:02.000Z)
Latitude
43.6757°
Longitude
23.73007°
Altitude
454.216 km
Speed
7.644 km/s
True Right ascension
03h 10m 04s
True Declination
43° 29' 47"
Sunlit
Object was in full shadow at epoch
Visualization orbit readout
Latitude
Unknown
Longitude
Unknown
Altitude
Unknown
Speed
Unknown
Apparent Right ascension
Unknown
Apparent Declination
Unknown
Sunlit
N/A
Visualization observer readout
Local Sidereal Time
06:14:11
Azimuth
Unknown
Elevation
Unknown
Doppler factor
Unknown
Orbital elements
Apogee altitude
454.169 km
Perigee altitude
440.547 km
Semi-major axis
6,825.495 km
Eccentricity
0.001
Inclination
53.0484°
RAAN
273.1009°
Arg. of periapsis
6.5065°
True anomaly
113.95783°
Mean anomaly
113.8533°
Eccentric anomaly
113.90557°
Mean motion
3.84895 °/min
Orbital period
93.53 mins
BSTAR
0.0030224
Loading maneuver chart data...
Computing Atmospheric mass density...
Loading historical data...
Loading historical data...
Loading historical data...
Loading historical data...
Loading historical data...
Loading historical data...
Loading historical data...

Documentation

Showing up to 5 results
|